Location: Mountain View
(37.3861°N, 122.0839°W)
Time: 16:42:20
(UTC-07:00)

ISS - Pass Details

Date: 02 October 2021
Orbit: 417 x 423 km, 51.6° (Epoch: 20 October)

Event Time Altitude Azimuth Distance (km) Brightness Sun altitude
Rises 21:18:12 0° 307° (NW) 2,366 1.1 -30.0°
Reaches altitude 10° 21:20:19 10° 303° (WNW) 1,501 -0.1 -30.4°
Enters shadow 21:20:52 14° 301° (WNW) 1,286 -0.5 -30.5°
